User: anonymous   Login
Location: Unspecified
(0.0000°N, 0.0000°E)
Time: 23:04:27
(UTC+00:00)
Language:

STARLINK-36750 - Orbit

View from above orbital plane
View from above orbital plane
View from above satellite
View from above satellite

Ground track
Ground track

The orbit is defined by the following mean orbital elements,

1 67695U          26145.57474721 +.00000000 +00000-0 +66074-3 0 00007
2 67695  97.2853 257.1547 0000191 222.5813 137.5415 15.33441768    02
Epoch (UTC): 25 May 2026 13:47:38
Eccentricity: 0.0000191
inclination: 97.2853°
perigee height: 465 km
apogee height: 466 km
right ascension of ascending node: 257.1547°
argument of perigee: 222.5813°
revolutions per day: 15.33441768
mean anomaly at epoch: 137.5415°

The dashed part of the orbit path shows where the satellite is in the earth's shadow,  

DLR